EW7401 Weather Reports


Display with metric or nautical units.
time (UTC)temp
F
wind
direction
speed
MPH
gust
MPH
rain 1hr
in
rain 24hr
in
rain mn
in
humidity
%
barometer
mb
20210621191605 76 320 0.0 5.0 0.00 0.00 0.00 51 1009.5
20210621191105 76 323 3.0 6.0 0.00 0.00 0.00 51 1009.5
20210621190605 76 327 0.0 3.0 0.00 0.00 0.00 51 1009.6
20210621190105 76 322 0.0 5.0 0.00 0.00 0.00 52 1009.6
20210621185604 76 328 2.0 6.0 0.00 0.00 0.00 51 1009.6
20210621185105 76 324 1.0 5.0 0.00 0.00 0.00 51 1009.6
20210621184605 76 323 1.0 6.0 0.00 0.00 0.00 51 1009.6
20210621184104 76 325 1.0 6.0 0.00 0.00 0.00 51 1009.6
20210621183605 75 329 1.0 6.0 0.00 0.00 0.00 52 1009.6
20210621183104 75 340 1.0 7.0 0.00 0.00 0.00 53 1009.6
20210621182605 75 324 3.0 7.0 0.00 0.00 0.00 52 1009.6
20210621182105 75 328 2.0 6.0 0.00 0.00 0.00 53 1009.6
20210621181604 75 324 1.0 6.0 0.00 0.00 0.00 53 1009.6
20210621181105 75 322 1.0 5.0 0.00 0.00 0.00 53 1009.6
20210621180605 75 329 3.0 6.0 0.00 0.00 0.00 53 1009.6
20210621180105 74 322 0.0 5.0 0.00 0.00 0.00 54 1009.6
20210621175605 74 338 1.0 6.0 0.00 0.00 0.00 54 1009.7
20210621175105 74 326 2.0 6.0 0.00 0.00 0.00 55 1009.8
20210621174605 74 325 0.0 6.0 0.00 0.00 0.00 53 1009.8
20210621174104 73 326 0.0 1.0 0.00 0.00 0.00 53 1009.8
20210621173605 73 331 1.0 3.0 0.00 0.00 0.00 54 1009.9
20210621173106 72 330 1.0 6.0 0.00 0.00 0.00 54 1009.9
20210621172605 72 333 1.0 6.0 0.00 0.00 0.00 55 1010.0
20210621172104 71 329 1.0 6.0 0.00 0.00 0.00 58 1010.0
20210621171605 70 331 3.0 5.0 0.00 0.00 0.00 58 1010.0
20210621171105 70 342 0.0 6.0 0.00 0.00 0.00 59 1010.0
20210621170604 71 332 0.0 6.0 0.00 0.00 0.00 57 1010.0
20210621170105 71 337 1.0 6.0 0.00 0.00 0.00 56 1010.0
20210621165604 71 342 0.0 5.0 0.00 0.00 0.00 57 1010.0
20210621165105 71 325 0.0 3.0 0.00 0.00 0.00 59 1010.1
20210621164604 70 326 0.0 3.0 0.00 0.00 0.00 62 1010.1
20210621164105 69 330 0.0 1.0 0.00 0.00 0.00 63 1010.1
20210621163605 68 327 0.0 1.0 0.00 0.00 0.00 64 1010.1
20210621163105 67 327 0.0 0.0 0.00 0.00 0.00 65 1010.1
20210621162605 67 333 0.0 1.0 0.00 0.00 0.00 65 1010.1
20210621162105 66 332 0.0 2.0 0.00 0.00 0.00 66 1010.1
20210621161604 66 328 0.0 1.0 0.00 0.00 0.00 67 1010.1
20210621161105 65 326 1.0 5.0 0.00 0.00 0.00 69 1010.1
20210621160605 65 312 0.0 1.0 0.00 0.00 0.00 70 1010.2
20210621160105 64 334 0.0 0.0 0.00 0.00 0.00 71 1010.2
20210621155605 64 330 0.0 0.0 0.00 0.00 0.00 73 1010.2
20210621155105 63 338 0.0 0.0 0.00 0.00 0.00 74 1010.2
20210621154605 63 337 0.0 0.0 0.00 0.00 0.00 75 1010.3
20210621154105 63 339 0.0 0.0 0.00 0.00 0.00 76 1010.3
20210621153604 62 334 0.0 0.0 0.00 0.00 0.00 77 1010.3
20210621153104 62 334 0.0 0.0 0.00 0.00 0.00 78 1010.4
20210621152604 61 310 0.0 0.0 0.00 0.00 0.00 79 1010.4
20210621152105 61 312 0.0 0.0 0.00 0.00 0.00 80 1010.4
20210621151605 60 314 0.0 0.0 0.00 0.00 0.00 81 1010.4
20210621151105 60 314 0.0 0.0 0.00 0.00 0.00 81 1010.3
20210621150605 59 301 0.0 0.0 0.00 0.00 0.00 81 1010.5
20210621150104 59 312 0.0 0.0 0.00 0.00 0.00 81 1010.5
20210621145604 59 316 0.0 0.0 0.00 0.00 0.00 81 1010.5
20210621145104 59 312 0.0 0.0 0.00 0.00 0.00 81 1010.5
20210621144605 59 309 0.0 0.0 0.00 0.00 0.00 81 1010.5
20210621144104 59 302 0.0 0.0 0.00 0.00 0.00 82 1010.6
20210621143604 59 300 0.0 0.0 0.00 0.00 0.00 82 1010.6
20210621143104 58 296 0.0 0.0 0.00 0.00 0.00 82 1010.5
20210621142605 58 293 0.0 0.0 0.00 0.00 0.00 82 1010.5
20210621142105 58 286 0.0 0.0 0.00 0.00 0.00 82 1010.5
20210621141604 58 282 0.0 0.0 0.00 0.00 0.00 82 1010.5
20210621141105 58 279 0.0 0.0 0.00 0.00 0.00 82 1010.5
20210621140605 58 274 0.0 0.0 0.00 0.00 0.00 82 1010.5
20210621140104 58 266 0.0 0.0 0.00 0.00 0.00 81 1010.5
20210621135605 58 261 0.0 0.0 0.00 0.00 0.00 81 1010.5
20210621135105 59 258 0.0 0.0 0.00 0.00 0.00 81 1010.5
20210621134605 59 258 0.0 0.0 0.00 0.00 0.00 81 1010.5
20210621134104 59 258 0.0 0.0 0.00 0.00 0.00 82 1010.5
20210621133605 59 257 0.0 0.0 0.00 0.00 0.00 82 1010.5
20210621133105 59 258 0.0 0.0 0.00 0.00 0.00 82 1010.5
20210621132604 59 258 0.0 0.0 0.00 0.00 0.00 83 1010.4
20210621132105 59 258 0.0 0.0 0.00 0.00 0.00 83 1010.3
20210621131605 59 257 0.0 0.0 0.00 0.00 0.00 83 1010.3
20210621131105 58 257 0.0 0.0 0.00 0.00 0.00 83 1010.3
20210621130605 58 256 0.0 0.0 0.00 0.00 0.00 83 1010.4
20210621130105 58 256 0.0 0.0 0.00 0.00 0.00 83 1010.4
20210621125604 58 312 0.0 0.0 0.00 0.00 0.00 83 1010.4
20210621125104 58 313 0.0 0.0 0.00 0.00 0.00 84 1010.3
20210621124605 58 313 0.0 0.0 0.00 0.00 0.00 84 1010.3
20210621124104 57 313 0.0 0.0 0.00 0.00 0.00 84 1010.3
20210621123605 57 313 0.0 0.0 0.00 0.00 0.00 84 1010.4
20210621123104 57 313 0.0 0.0 0.00 0.00 0.00 84 1010.3
20210621122604 57 313 0.0 0.0 0.00 0.00 0.00 84 1010.3
20210621122105 57 313 0.0 0.0 0.00 0.00 0.00 84 1010.2
20210621121604 57 313 0.0 0.0 0.00 0.00 0.00 84 1010.2
20210621121104 57 313 0.0 0.0 0.00 0.00 0.00 84 1010.1
20210621120604 56 313 0.0 0.0 0.00 0.00 0.00 84 1010.1
20210621120104 56 313 0.0 0.0 0.00 0.00 0.00 84 1010.1
20210621115604 56 313 0.0 0.0 0.00 0.00 0.00 84 1010.1
20210621115104 56 313 0.0 0.0 0.00 0.00 0.00 83 1010.1
20210621114604 56 313 0.0 0.0 0.00 0.00 0.00 83 1010.1
20210621114105 56 312 0.0 0.0 0.00 0.00 0.00 83 1010.1
20210621113604 56 311 0.0 0.0 0.00 0.00 0.00 83 1010.1
20210621113104 56 311 0.0 0.0 0.00 0.00 0.00 83 1010.1
20210621112604 56 310 0.0 0.0 0.00 0.00 0.00 83 1010.0
20210621112104 56 306 0.0 0.0 0.00 0.00 0.00 82 1010.0
20210621111604 56 305 0.0 0.0 0.00 0.00 0.00 82 1009.9
20210621111105 57 313 0.0 0.0 0.00 0.00 0.00 83 1010.0
20210621110604 57 305 0.0 0.0 0.00 0.00 0.00 83 1010.0
20210621110105 57 304 0.0 0.0 0.00 0.00 0.00 83 1010.0
20210621105604 57 307 0.0 0.0 0.00 0.00 0.00 83 1010.0
20210621105104 57 309 0.0 0.0 0.00 0.00 0.00 83 1010.0
20210621104104 57 307 0.0 0.0 0.00 0.00 0.00 82 1010.1
20210621103605 57 306 0.0 0.0 0.00 0.00 0.00 82 1010.1
20210621103105 57 306 0.0 0.0 0.00 0.00 0.00 82 1010.1
20210621102604 57 306 0.0 0.0 0.00 0.00 0.00 81 1010.1
20210621102105 57 306 0.0 0.0 0.00 0.00 0.00 81 1010.1
20210621101604 57 306 0.0 0.0 0.00 0.00 0.00 81 1010.1
20210621101104 57 306 0.0 0.0 0.00 0.00 0.00 81 1010.1
20210621100605 57 306 0.0 0.0 0.00 0.00 0.00 81 1010.0
20210621100104 57 306 0.0 0.0 0.00 0.00 0.00 80 1010.0
20210621095604 57 306 0.0 0.0 0.00 0.00 0.00 80 1010.0
20210621095104 57 307 0.0 0.0 0.00 0.00 0.00 79 1010.0
20210621094605 58 315 0.0 0.0 0.00 0.00 0.00 78 1010.0
20210621094104 58 310 0.0 0.0 0.00 0.00 0.00 78 1010.1
20210621093604 58 309 0.0 0.0 0.00 0.00 0.00 77 1010.1
20210621093105 59 309 0.0 0.0 0.00 0.00 0.00 77 1010.1
20210621092605 59 308 0.0 0.0 0.00 0.00 0.00 77 1010.0
20210621092104 59 308 0.0 0.0 0.00 0.00 0.00 76 1010.0
20210621091604 59 308 0.0 0.0 0.00 0.00 0.00 77 1010.0
20210621091104 59 308 0.0 0.0 0.00 0.00 0.00 76 1010.1
20210621090605 59 308 0.0 0.0 0.00 0.00 0.00 76 1010.1
20210621090104 59 308 0.0 0.0 0.00 0.00 0.00 76 1010.1
20210621085604 59 312 0.0 1.0 0.00 0.00 0.00 75 1010.1
20210621085104 60 314 0.0 0.0 0.00 0.00 0.00 74 1010.1
20210621084605 60 317 0.0 0.0 0.00 0.00 0.00 74 1010.1
20210621084104 60 311 0.0 0.0 0.00 0.00 0.00 73 1010.1
20210621083604 60 309 0.0 0.0 0.00 0.00 0.00 73 1010.2
20210621083104 60 309 0.0 0.0 0.00 0.00 0.00 73 1010.2
20210621082605 61 309 0.0 0.0 0.00 0.00 0.00 73 1010.2
20210621082104 61 309 0.0 0.0 0.00 0.00 0.00 73 1010.3
20210621081604 61 310 0.0 0.0 0.00 0.00 0.00 72 1010.3
20210621081104 61 309 0.0 0.0 0.00 0.00 0.00 72 1010.3
20210621080605 61 306 0.0 0.0 0.00 0.00 0.00 71 1010.2
20210621080105 61 304 0.0 0.0 0.00 0.00 0.00 71 1010.2
20210621075604 61 305 0.0 0.0 0.00 0.00 0.00 70 1010.2
20210621075104 61 305 0.0 0.0 0.00 0.00 0.00 69 1010.3
20210621074604 61 305 0.0 0.0 0.00 0.00 0.00 69 1010.3
20210621074104 62 305 0.0 0.0 0.00 0.00 0.00 68 1010.4
20210621073604 62 305 0.0 0.0 0.00 0.00 0.00 68 1010.4
20210621073104 62 305 0.0 0.0 0.00 0.00 0.00 68 1010.5
20210621072605 63 305 0.0 0.0 0.00 0.00 0.00 68 1010.4
20210621072105 63 305 0.0 0.0 0.00 0.00 0.00 68 1010.4
20210621071604 63 305 0.0 0.0 0.00 0.00 0.00 67 1010.4
20210621071104 63 306 0.0 0.0 0.00 0.00 0.00 67 1010.4
20210621070604 64 309 0.0 0.0 0.00 0.00 0.00 66 1010.3
20210621070104 64 309 0.0 0.0 0.00 0.00 0.00 65 1010.3
20210621065604 65 317 0.0 0.0 0.00 0.00 0.00 64 1010.3
20210621065104 65 317 0.0 0.0 0.00 0.00 0.00 64 1010.3
20210621064604 65 315 0.0 0.0 0.00 0.00 0.00 63 1010.2
20210621064104 65 267 0.0 0.0 0.00 0.00 0.00 63 1010.2
20210621063604 65 255 0.0 1.0 0.00 0.00 0.00 63 1010.1
20210621063104 65 247 0.0 0.0 0.00 0.00 0.00 63 1010.1
20210621062604 65 244 0.0 0.0 0.00 0.00 0.00 63 1010.2
20210621062104 65 242 0.0 2.0 0.00 0.00 0.00 63 1010.2
20210621061604 66 241 0.0 2.0 0.00 0.00 0.00 62 1010.3
20210621061105 66 239 0.0 2.0 0.00 0.00 0.00 61 1010.3
20210621060604 66 243 0.0 2.0 0.00 0.00 0.00 61 1010.4
20210621060104 66 244 0.0 1.0 0.00 0.00 0.00 61 1010.4
20210621055604 66 241 0.0 1.0 0.00 0.00 0.00 60 1010.5
20210621055105 66 240 0.0 1.0 0.00 0.00 0.00 59 1010.5
20210621054604 66 241 0.0 1.0 0.00 0.00 0.00 59 1010.5
20210621054104 66 241 0.0 1.0 0.00 0.00 0.00 60 1010.5
20210621053604 67 239 0.0 2.0 0.00 0.00 0.00 59 1010.5
20210621053105 67 233 0.0 1.0 0.00 0.00 0.00 59 1010.6
20210621052604 67 237 0.0 3.0 0.00 0.00 0.00 59 1010.6
20210621052104 66 237 0.0 2.0 0.00 0.00 0.00 60 1010.5
20210621051604 65 242 0.0 1.0 0.00 0.00 0.00 62 1010.6
20210621051104 64 244 0.0 0.0 0.00 0.00 0.00 64 1010.6
20210621050604 64 239 0.0 1.0 0.00 0.00 0.00 64 1010.6
20210621050104 64 229 0.0 0.0 0.00 0.00 0.00 64 1010.6
20210621045604 64 227 0.0 2.0 0.00 0.00 0.00 63 1010.6
20210621045104 65 221 0.0 1.0 0.00 0.00 0.00 62 1010.6
20210621044604 66 234 0.0 0.0 0.00 0.00 0.00 61 1010.6
20210621044104 67 221 0.0 1.0 0.00 0.00 0.00 58 1010.5
20210621043604 68 221 0.0 0.0 0.00 0.00 0.00 57 1010.5
20210621043104 69 237 0.0 0.0 0.00 0.00 0.00 56 1010.5
20210621042604 70 242 0.0 0.0 0.00 0.00 0.00 55 1010.5
20210621042104 71 244 0.0 0.0 0.00 0.00 0.00 54 1010.5
20210621041604 71 244 0.0 1.0 0.00 0.00 0.00 53 1010.5
20210621041105 72 248 0.0 1.0 0.00 0.00 0.00 50 1010.5
20210621040605 72 246 0.0 0.0 0.00 0.00 0.00 48 1010.5
20210621040106 72 244 0.0 1.0 0.00 0.00 0.00 49 1010.5
20210621035605 72 251 0.0 1.0 0.00 0.00 0.00 48 1010.5
20210621035105 72 247 0.0 1.0 0.00 0.00 0.00 48 1010.5
20210621034606 72 240 0.0 3.0 0.00 0.00 0.00 49 1010.5
20210621034105 72 248 0.0 3.0 0.00 0.00 0.00 49 1010.5
20210621033605 72 250 0.0 3.0 0.00 0.00 0.00 49 1010.5
20210621033105 73 239 0.0 2.0 0.00 0.00 0.00 50 1010.5
20210621032605 73 241 0.0 1.0 0.00 0.00 0.00 49 1010.6
20210621032105 73 239 0.0 2.0 0.00 0.00 0.00 49 1010.6
20210621031605 73 230 0.0 2.0 0.00 0.00 0.00 48 1010.6
20210621031105 74 242 1.0 3.0 0.00 0.00 0.00 47 1010.6
20210621030605 74 230 0.0 2.0 0.00 0.00 0.00 45 1010.6
20210621030105 75 238 0.0 1.0 0.00 0.00 0.00 45 1010.6
20210621025605 76 225 0.0 2.0 0.00 0.00 0.00 44 1010.7
20210621025105 77 242 0.0 1.0 0.00 0.00 0.00 43 1010.7
20210621024605 77 295 0.0 0.0 0.00 0.00 0.00 43 1010.8
20210621024105 77 309 0.0 0.0 0.00 0.00 0.00 43 1010.9
20210621023605 76 316 0.0 0.0 0.00 0.00 0.00 43 1010.9
20210621023105 76 317 0.0 0.0 0.00 0.00 0.00 43 1011.0
20210621022605 76 317 0.0 0.0 0.00 0.00 0.00 43 1011.0
20210621022105 76 319 0.0 0.0 0.00 0.00 0.00 43 1011.0
20210621021605 76 323 0.0 1.0 0.00 0.00 0.00 43 1011.0
20210621021106 76 309 0.0 1.0 0.00 0.00 0.00 43 1011.0
20210621020605 76 316 0.0 1.0 0.00 0.00 0.00 43 1011.0
20210621020105 76 307 0.0 2.0 0.00 0.00 0.00 43 1011.1
20210621015605 76 304 0.0 3.0 0.00 0.00 0.00 43 1011.1
20210621015105 76 313 0.0 3.0 0.00 0.00 0.00 43 1011.1
20210621014605 77 310 0.0 3.0 0.00 0.00 0.00 43 1011.1
20210621014105 77 306 0.0 0.0 0.00 0.00 0.00 43 1011.1
20210621013605 76 313 0.0 0.0 0.00 0.00 0.00 43 1011.1
20210621013105 76 320 0.0 0.0 0.00 0.00 0.00 43 1011.1
20210621012605 77 321 0.0 3.0 0.00 0.00 0.00 43 1011.1
20210621012105 77 330 0.0 0.0 0.00 0.00 0.00 42 1011.1
20210621011605 78 322 0.0 1.0 0.00 0.00 0.00 41 1011.2
20210621011105 78 320 0.0 0.0 0.00 0.00 0.00 41 1011.2
20210621010604 77 319 0.0 1.0 0.00 0.00 0.00 42 1011.3
20210621010106 77 328 0.0 3.0 0.00 0.00 0.00 43 1011.4
20210621005605 77 337 0.0 3.0 0.00 0.00 0.00 42 1011.5
20210621005106 77 322 1.0 3.0 0.00 0.00 0.00 42 1011.6
20210621004605 77 328 0.0 5.0 0.00 0.00 0.00 43 1011.6
20210621004105 76 323 1.0 3.0 0.00 0.00 0.00 43 1011.6
20210621003605 76 319 0.0 1.0 0.00 0.00 0.00 43 1011.7
20210621003106 76 319 0.0 2.0 0.00 0.00 0.00 44 1011.7
20210621002605 75 325 0.0 1.0 0.00 0.00 0.00 45 1011.8
20210621002105 75 323 0.0 1.0 0.00 0.00 0.00 45 1011.8
20210621001604 76 328 0.0 3.0 0.00 0.00 0.00 45 1011.9
20210621001106 77 323 0.0 2.0 0.00 0.00 0.00 44 1011.9
20210621000605 77 324 0.0 1.0 0.00 0.00 0.00 43 1012.0
20210621000105 77 321 0.0 1.0 0.00 0.00 0.00 44 1012.1
20210620235605 77 331 0.0 1.0 0.00 0.00 0.00 44 1012.2
20210620235106 76 321 0.0 1.0 0.00 0.00 0.00 45 1012.2
20210620234605 76 315 0.0 2.0 0.00 0.00 0.00 46 1012.2
20210620234105 76 319 0.0 1.0 0.00 0.00 0.00 48 1012.3
20210620233606 76 309 2.0 5.0 0.00 0.00 0.00 49 1012.3
20210620233105 77 340 0.0 0.0 0.00 0.00 0.00 48 1012.3
20210620232605 77 343 0.0 1.0 0.00 0.00 0.00 45 1012.4
20210620232105 77 329 0.0 3.0 0.00 0.00 0.00 45 1012.5
20210620231605 76 321 2.0 5.0 0.00 0.00 0.00 46 1012.6
20210620231106 76 319 0.0 3.0 0.00 0.00 0.00 46 1012.6
20210620230607 77 329 0.0 1.0 0.00 0.00 0.00 46 1012.7
20210620230108 77 324 1.0 3.0 0.00 0.00 0.00 45 1012.7
20210620225606 78 327 0.0 2.0 0.00 0.00 0.00 45 1012.7
20210620225105 78 324 0.0 1.0 0.00 0.00 0.00 44 1012.8
20210620224604 79 319 0.0 1.0 0.00 0.00 0.00 43 1012.8
20210620224106 80 323 0.0 1.0 0.00 0.00 0.00 42 1012.9
20210620223604 80 330 0.0 2.0 0.00 0.00 0.00 41 1012.9
20210620223105 79 328 0.0 1.0 0.00 0.00 0.00 41 1013.0
20210620222605 79 323 0.0 1.0 0.00 0.00 0.00 42 1013.1
20210620222106 79 317 0.0 3.0 0.00 0.00 0.00 43 1013.1
20210620221605 79 316 0.0 1.0 0.00 0.00 0.00 43 1013.2
20210620221105 78 318 0.0 3.0 0.00 0.00 0.00 43 1013.2
20210620220605 78 321 0.0 1.0 0.00 0.00 0.00 44 1013.2
20210620220106 78 322 0.0 3.0 0.00 0.00 0.00 44 1013.2
20210620215605 77 312 0.0 1.0 0.00 0.00 0.00 44 1013.2
20210620215104 77 326 0.0 2.0 0.00 0.00 0.00 45 1013.3
20210620214605 77 310 0.0 1.0 0.00 0.00 0.00 44 1013.3
20210620214106 77 292 0.0 0.0 0.00 0.00 0.00 43 1013.4
20210620213605 77 291 0.0 1.0 0.00 0.00 0.00 44 1013.4
20210620213104 78 317 0.0 0.0 0.00 0.00 0.00 45 1013.6
20210620212605 78 328 0.0 0.0 0.00 0.00 0.00 43 1013.6
20210620212105 78 313 0.0 1.0 0.00 0.00 0.00 43 1013.6
20210620211605 78 239 0.0 0.0 0.00 0.00 0.00 44 1013.6
20210620211105 78 168 0.0 1.0 0.00 0.00 0.00 44 1013.7
20210620210605 78 168 0.0 1.0 0.00 0.00 0.00 44 1013.7
20210620210106 77 7 0.0 1.0 0.00 0.00 0.00 44 1013.7
20210620205605 77 337 0.0 1.0 0.00 0.00 0.00 45 1013.8
20210620205104 77 332 0.0 0.0 0.00 0.00 0.00 45 1013.8
20210620204605 77 324 0.0 1.0 0.00 0.00 0.00 45 1013.8
20210620204105 77 319 0.0 0.0 0.00 0.00 0.00 46 1013.8
20210620203605 76 320 0.0 0.0 0.00 0.00 0.00 48 1013.8
20210620203104 76 327 0.0 0.0 0.00 0.00 0.00 49 1013.9
20210620202604 76 317 0.0 1.0 0.00 0.00 0.00 49 1013.9
20210620202106 76 343 0.0 1.0 0.00 0.00 0.00 48 1014.0
20210620201605 76 307 0.0 0.0 0.00 0.00 0.00 49 1014.0
20210620201104 76 306 0.0 1.0 0.00 0.00 0.00 50 1014.2
20210620200605 76 307 0.0 0.0 0.00 0.00 0.00 50 1014.2
20210620200106 75 305 0.0 2.0 0.00 0.00 0.00 51 1014.2
20210620195605 74 314 0.0 1.0 0.00 0.00 0.00 53 1014.2
20210620195105 74 307 0.0 1.0 0.00 0.00 0.00 54 1014.3
20210620194605 73 335 0.0 0.0 0.00 0.00 0.00 54 1014.3
20210620194105 73 315 0.0 3.0 0.00 0.00 0.00 55 1014.3
20210620193605 74 332 0.0 0.0 0.00 0.00 0.00 55 1014.3
20210620193105 74 337 0.0 1.0 0.00 0.00 0.00 56 1014.4
20210620192604 74 323 0.0 1.0 0.00 0.00 0.00 55 1014.5
20210620192106 75 325 0.0 1.0 0.00 0.00 0.00 54 1014.5